Terug naar catalogus

STARLINK-34906

ActiefCommunicatieVLEO
NORAD 65896·PAYLOAD·🇺🇸 United States

Gelanceerd Oct 7, 2025 vanaf Cape Canaveral Space Force Station

Loading…

Volgende Passages (komende 24 uur)

TLE

VersSource: CelesTrak SupGP

Epoch: Sep 14, 2026, 22:56 UTC

1 65896C 25224Q   26257.95604167 -.00013456  00000+0 -43256-3 0  2579
2 65896  53.1574 210.7646 0001319  93.9976 220.2588 15.31719653    13

Volg STARLINK-34906 in realtime met AllMySat

Download on the App Store